Regional Weather Roundup
Issued by NWS Newport/Morehead, NC

Current Version | Previous Version | Text Only | Print | Product List | Glossary Off
Versions: 1 2 3 4 5 6 7 8 9 10 11 12 13 14 15 16 17 18 19 20 21 22 23 24 25 26 27 28 29 30 31 32 33 34 35 36 37 38 39 40 41 42 43 44 45 46 47 48 49 50
578 ASUS42 KMHX 290425 RWRMHX WEATHER ROUNDUP FOR EASTERN NORTH CAROLINA NATIONAL WEATHER SERVICE NEWPORT/MOREHEAD CITY NC 1200 AM EDT WED MAR 29 2017 NOTE: "FAIR" INDICATES FEW OR NO CLOUDS BELOW 12,000 FEET WITH NO SIGNIFICANT WEATHER AND/OR OBSTRUCTIONS TO VISIBILITY NCZ015>017-031-032-045>047-102-103-290500- NORTH COAST CITY SKY/WX TMP DP RH WIND PRES REMARKS EDENTON CLEAR 59 57 94 CALM 29.92S ELIZABETH CITY CLEAR 59 58 96 W6 29.90F KITTY HAWK NOT AVBL MANTEO CLEAR 61 60 96 NW5 29.90F $$ NCZ045>047-081-094-103-104-290500- CENTRAL COAST CITY SKY/WX TMP DP RH WIND PRES REMARKS FRISCO CLEAR 64 61 90 VRB7 29.90R $$ NCZ095-097-098-100-101-290500- SOUTHERN COAST CITY SKY/WX TMP DP RH WIND PRES REMARKS BEAUFORT CLEAR 62 62 100 W3 29.92S CEDAR ISLAND NOT AVBL JACKSONVILLE CLEAR 61 61 100 CALM 29.92F PINEY ISLAND CLEAR N/A N/A N/A W7 29.92R FOG WILMINGTON PTCLDY 63 60 90 SW3 29.93S $$ NCZ011>013-027>030-043-044-078>080-089-090>093-098-290500- COASTAL PLAIN CITY SKY/WX TMP DP RH WIND PRES REMARKS AHOSKIE FOG 53 53 99 CALM 29.93S VSB 1/2 CLINTON CLEAR 62 62 98 CALM 29.95R ELIZABETHTOWN CLEAR 64 61 88 CALM 29.93S GOLDSBORO CLEAR 61 61 100 CALM 29.92S GREENVILLE N/A 55 55 100 CALM 29.95S FOG HAVELOCK NOT AVBL KENANSVILLE CLOUDY 57 57 100 CALM 29.94S FOG KINSTON FOG 57 56 99 CALM 29.94S VSB 1/2 NEW BERN FOG 58 58 100 CALM 29.93S VSB 1/4 RICHLANDS CLOUDY 57 57 100 CALM 29.94R FOG ROCKY MOUNT CLEAR 55 55 100 CALM 29.94R FOG WASHINGTON N/A 58 57 99 CALM 29.93R FOG WHITEVILLE CLOUDY 65 62 88 CALM 29.93S $$ AMZ130-135-150-152-154-156-158-170-250-252-270-ANZ085-086-088-633-658-670-290500- MARINE OBSERVATIONS STATION/POSITION TIME TEMP WIND PRES WAVE SWELL AIR SEA DIR/SP/G HT/PER HT/PER (UTC) (F) (DEG/KT/KT) (MB) (FT/S) (FT/S) CHESAPEAKE LIGHT NOT AVBL 64 E VA BEACH 0350 54 49 240/ 8/ 8 1011.4 4/10 3/10 DUCK 0400 63 47 290/ 9/ 10 1011.8 2 E DUCK 0400 50 N/A 3/10 2/11 OREGON INLET 0400 58 62 240/ 5/ 6 1012.1 13E OREGON INLT 0348 53 N/A 4/11 3/11 HATTERAS CG 0400 62 63 260/ 7/ 9 1012.2 DIAMOND BUOY 0350 71 74 270/ 17/ 19 1012.1 5/10 3/10 CAPE LOOKOUT 0400 64 280/ 10/ 11 1012.9 BEAUFORT LAB 0400 62 62 350/ 2/ 3 1012.4 30 SE NEW RVR IN 0408 65 250/ 12/ 16 1013.1 30 SE NEW RVR IN 0343 64 N/A 6/10 2/11 27 SE WRIGHTSVLE 0408 67 70 280/ 10/ 14 1012.2 5 SE WRIGHTSVLE 0408 61 58 240/ 6/ 10 1013.2 225 S CAPE HAT 0350 71 72 210/ 14/ 16 1015.5 6/10 5/10 41 SE CHARLESTON 0350 70 71 240/ 14/ 16 1014.2 5/11 5/11 $$

USA.gov is the U.S. government's official web portal to all federal, state and local government web resources and services.